TimeAKDT,TemperatureF,Dew PointF,Humidity,Sea Level PressureIn,VisibilityMPH,Wind Direction,Wind SpeedMPH,Gust SpeedMPH,PrecipitationIn,Events,Conditions,WindDirDegrees,DateUTC
12:53 AM,48.0,46.0,93,29.98,10.0,ESE,3.5,-,0.00,Rain,Light Rain,120,2013-10-02 08:53:00
1:53 AM,46.0,45.0,96,29.99,10.0,Calm,Calm,-,0.00,,Overcast,0,2013-10-02 09:53:00
2:53 AM,46.0,45.0,96,30.00,10.0,Calm,Calm,-,N/A,,Overcast,0,2013-10-02 10:53:00
3:53 AM,46.0,45.0,96,30.02,10.0,Calm,Calm,-,N/A,,Overcast,0,2013-10-02 11:53:00
4:53 AM,44.1,44.1,100,30.04,10.0,Calm,Calm,-,N/A,,Scattered Clouds,0,2013-10-02 12:53:00
5:27 AM,42.8,42.8,100,30.04,10.0,Calm,Calm,-,N/A,,Mostly Cloudy,0,2013-10-02 13:27:00
5:36 AM,42.8,42.8,100,30.05,10.0,Calm,Calm,-,N/A,,Mostly Cloudy,0,2013-10-02 13:36:00
5:53 AM,42.1,42.1,100,30.05,10.0,Calm,Calm,-,N/A,,Mostly Cloudy,0,2013-10-02 13:53:00
6:53 AM,41.0,41.0,100,30.07,10.0,Calm,Calm,-,N/A,,Partly Cloudy,0,2013-10-02 14:53:00
7:53 AM,44.1,44.1,100,30.09,10.0,Calm,Calm,-,0.01,,Clear,0,2013-10-02 15:53:00
8:53 AM,48.0,46.9,96,30.11,10.0,Calm,Calm,-,0.03,,Partly Cloudy,0,2013-10-02 16:53:00
9:53 AM,53.1,45.0,74,30.12,10.0,Calm,Calm,-,0.06,,Clear,0,2013-10-02 17:53:00
10:53 AM,53.1,46.0,77,30.13,10.0,Calm,Calm,-,N/A,,Scattered Clouds,0,2013-10-02 18:53:00
11:00 AM,53.6,46.4,77,30.13,10.0,Calm,Calm,-,N/A,,Mostly Cloudy,0,2013-10-02 19:00:00
11:50 AM,57.2,48.2,72,30.14,10.0,Calm,Calm,-,N/A,,Scattered Clouds,0,2013-10-02 19:50:00
11:53 AM,57.0,46.9,69,30.14,10.0,WNW,3.5,-,N/A,,Scattered Clouds,300,2013-10-02 19:53:00
12:00 PM,55.4,46.4,72,30.14,10.0,NW,3.5,-,N/A,,Scattered Clouds,320,2013-10-02 20:00:00
12:08 PM,53.6,46.4,77,30.14,10.0,Calm,Calm,-,N/A,,Scattered Clouds,0,2013-10-02 20:08:00
12:53 PM,54.0,45.0,72,30.15,10.0,WNW,3.5,-,N/A,,Scattered Clouds,290,2013-10-02 20:53:00
1:53 PM,55.9,46.0,69,30.15,10.0,WNW,3.5,-,N/A,,Clear,300,2013-10-02 21:53:00
2:53 PM,57.0,46.9,69,30.16,10.0,West,4.6,-,N/A,,Scattered Clouds,270,2013-10-02 22:53:00
3:00 PM,55.4,46.4,72,30.16,10.0,Calm,Calm,-,N/A,,Mostly Cloudy,0,2013-10-02 23:00:00
3:13 PM,55.4,46.4,72,30.16,10.0,West,3.5,-,N/A,,Partly Cloudy,280,2013-10-02 23:13:00
3:53 PM,55.0,46.0,72,30.16,10.0,Variable,3.5,-,N/A,,Scattered Clouds,0,2013-10-02 23:53:00
4:53 PM,52.0,45.0,77,30.16,10.0,West,3.5,-,N/A,,Partly Cloudy,280,2013-10-03 00:53:00
5:53 PM,50.0,46.0,86,30.17,10.0,Calm,Calm,-,N/A,,Clear,0,2013-10-03 01:53:00
6:53 PM,46.0,45.0,96,30.17,10.0,Calm,Calm,-,N/A,,Clear,0,2013-10-03 02:53:00
7:53 PM,45.0,44.1,97,30.18,10.0,Calm,Calm,-,N/A,,Clear,0,2013-10-03 03:53:00
8:53 PM,44.1,43.0,96,30.18,10.0,Calm,Calm,-,N/A,,Clear,0,2013-10-03 04:53:00
9:53 PM,42.1,42.1,100,30.19,10.0,Calm,Calm,-,N/A,,Clear,0,2013-10-03 05:53:00
10:53 PM,41.0,39.9,96,30.18,10.0,Calm,Calm,-,N/A,,Clear,0,2013-10-03 06:53:00
11:53 PM,39.9,39.0,97,30.18,10.0,Calm,Calm,-,N/A,,Clear,0,2013-10-03 07:53:00